User: anonymous   Login
Location: Oshawa
(43.9000°N, 78.8670°W)
Time: 04:38:58
(UTC-04:00)
Language:

Cosmos 1408 Rocket - Orbit

View from above orbital plane
View from above orbital plane
View from above satellite
View from above satellite

Ground track
Ground track

The orbit data is extracted from the following two-line orbital elements,

1 13553U 82092B   17144.90440604 +.00000077 +00000-0 +62282-5 0  9991
2 13553 082.5698 255.7649 0022810 119.8257 019.6099 14.84120929852493
Epoch (UTC): 24 May 2017 21:42:20
Eccentricity: 0.0022810
inclination: 82.5698°
perigee height: 600 km
apogee height: 632 km
right ascension of ascending node: 255.7649°
argument of perigee: 119.8257°
revolutions per day: 14.84120929
mean anomaly at epoch: 19.6099°
orbit number at epoch: 85249

The dashed part of the orbit path shows where the satellite is in the earth's shadow,  

DLR